GFSNGP_prec_precacc12_294.txt.gz
Total_Precipitation_Accumulation
0.02 0.02 0.03 0.01 0.00 0.00 0.01 0.04 0.04 0.04 0.04 0.06 0.10 0.12 0.14 0.13 0.11 0.11 0.16 0.17 0.21 0.25 0.26 0.30 0.36 0.40 0.48 0.50 0.39 0.21 0.17 0.11 0.10 0.07 0.09 0.12 0.14 0.13 0.08 0.06 0.08 0.05 0.09 0.10
0.03 0.02 0.01 0.01 0.00 0.00 0.01 0.02 0.03 0.03 0.04 0.05 0.08 0.12 0.10 0.10 0.10 0.10 0.12 0.17 0.20 0.22 0.23 0.25 0.34 0.40 0.46 0.51 0.52 0.46 0.24 0.18 0.12 0.11 0.07 0.10 0.13 0.14 0.12 0.09 0.07 0.06 0.05 0.07
0.03 0.04 0.05 0.03 0.01 0.00 0.00 0.03 0.04 0.04 0.04 0.04 0.05 0.09 0.13 0.11 0.11 0.14 0.15 0.16 0.18 0.22 0.26 0.28 0.31 0.40 0.44 0.51 0.54 0.53 0.48 0.29 0.19 0.13 0.13 0.11 0.12 0.19 0.17 0.12 0.12 0.05 0.04 0.04
0.05 0.08 0.07 0.01 0.01 0.00 0.00 0.02 0.03 0.04 0.04 0.06 0.08 0.13 0.10 0.12 0.13 0.12 0.14 0.14 0.14 0.17 0.20 0.23 0.26 0.28 0.35 0.40 0.46 0.52 0.54 0.49 0.34 0.25 0.15 0.15 0.15 0.17 0.29 0.23 0.07 0.08 0.04 0.03
0.05 0.04 0.03 0.01 0.01 0.01 0.01 0.02 0.02 0.03 0.04 0.04 0.05 0.09 0.09 0.07 0.11 0.16 0.17 0.18 0.20 0.21 0.21 0.23 0.23 0.23 0.28 0.30 0.34 0.37 0.44 0.53 0.55 0.47 0.40 0.22 0.25 0.30 0.29 0.36 0.34 0.09 0.04 0.03
0.07 0.04 0.05 0.02 0.00 0.01 0.01 0.01 0.01 0.02 0.03 0.03 0.02 0.05 0.05 0.07 0.10 0.10 0.12 0.14 0.16 0.15 0.13 0.12 0.17 0.18 0.19 0.25 0.25 0.30 0.39 0.49 0.55 0.56 0.59 0.58 0.44 0.39 0.44 0.41 0.42 0.42 0.16 0.05
0.07 0.09 0.04 0.01 0.00 0.01 0.01 0.01 0.01 0.01 0.03 0.03 0.05 0.08 0.07 0.06 0.07 0.10 0.12 0.12 0.12 0.11 0.13 0.16 0.14 0.14 0.15 0.15 0.23 0.34 0.38 0.39 0.40 0.46 0.53 0.71 0.74 0.65 0.63 0.62 0.53 0.41 0.42 0.27
0.05 0.07 0.05 0.01 0.01 0.01 0.01 0.01 0.01 0.01 0.01 0.03 0.04 0.04 0.04 0.04 0.05 0.05 0.07 0.06 0.07 0.08 0.09 0.11 0.10 0.09 0.11 0.14 0.21 0.23 0.30 0.33 0.34 0.40 0.44 0.47 0.64 0.74 0.75 0.82 0.79 0.67 0.46 0.42
0.03 0.04 0.03 0.02 0.02 0.02 0.01 0.01 0.01 0.01 0.01 0.01 0.02 0.02 0.02 0.02 0.02 0.03 0.04 0.04 0.05 0.08 0.08 0.07 0.08 0.10 0.09 0.15 0.13 0.14 0.17 0.25 0.31 0.35 0.38 0.41 0.41 0.53 0.68 0.74 0.82 0.86 0.81 0.63
0.03 0.03 0.03 0.03 0.01 0.01 0.01 0.01 0.01 0.01 0.01 0.00 0.00 0.00 0.00 0.00 0.00 0.01 0.01 0.01 0.01 0.02 0.04 0.05 0.06 0.08 0.11 0.09 0.09 0.09 0.13 0.18 0.22 0.28 0.31 0.34 0.37 0.38 0.43 0.56 0.66 0.71 0.71 0.78
0.02 0.02 0.02 0.02 0.01 0.01 0.00 0.00 0.00 0.00 0.00 0.00 0.00 0.00 0.00 0.00 0.00 0.00 0.00 0.00 0.00 0.00 0.01 0.02 0.03 0.05 0.06 0.04 0.03 0.05 0.08 0.12 0.14 0.17 0.23 0.27 0.31 0.40 0.43 0.50 0.54 0.59 0.59 0.56
0.03 0.02 0.02 0.02 0.01 0.01 0.00 0.01 0.00 0.01 0.00 0.00 0.00 0.00 0.00 0.00 0.00 0.01 0.00 0.00 0.00 0.00 0.00 0.00 0.00 0.01 0.01 0.01 0.01 0.02 0.03 0.07 0.08 0.08 0.12 0.15 0.17 0.16 0.21 0.31 0.31 0.38 0.44 0.42
0.03 0.02 0.01 0.01 0.01 0.01 0.00 0.00 0.02 0.01 0.00 0.00 0.00 0.00 0.00 0.00 0.00 0.00 0.00 0.00 0.00 0.00 0.00 0.00 0.00 0.00 0.00 0.00 0.00 0.00 0.01 0.04 0.01 0.02 0.05 0.06 0.08 0.11 0.11 0.10 0.11 0.14 0.21 0.24
0.02 0.01 0.01 0.01 0.01 0.00 0.00 0.00 0.01 0.00 0.00 0.00 0.00 0.00 0.00 0.00 0.00 0.00 0.00 0.00 0.00 0.00 0.00 0.00 0.00 0.00 0.00 0.00 0.00 0.00 0.00 0.01 0.01 0.00 0.01 0.01 0.02 0.03 0.05 0.06 0.06 0.05 0.06 0.08
0.01 0.01 0.01 0.01 0.01 0.00 0.00 0.00 0.00 0.00 0.00 0.00 0.00 0.00 0.00 0.00 0.00 0.00 0.00 0.00 0.00 0.00 0.00 0.00 0.00 0.00 0.00 0.00 0.00 0.00 0.00 0.01 0.01 0.00 0.00 0.00 0.00 0.00 0.00 0.01 0.01 0.01 0.01 0.02
0.01 0.01 0.01 0.01 0.01 0.01 0.00 0.00 0.00 0.00 0.00 0.00 0.00 0.00 0.00 0.00 0.00 0.00 0.00 0.00 0.00 0.00 0.00 0.00 0.01 0.00 0.00 0.00 0.00 0.00 0.00 0.01 0.01 0.00 0.00 0.00 0.00 0.00 0.00 0.00 0.01 0.01 0.01 0.03
0.01 0.01 0.01 0.01 0.01 0.01 0.01 0.01 0.01 0.01 0.00 0.00 0.00 0.00 0.00 0.00 0.00 0.00 0.00 0.00 0.00 0.00 0.00 0.00 0.01 0.00 0.00 0.01 0.01 0.00 0.00 0.00 0.00 0.00 0.00 0.00 0.01 0.00 0.00 0.01 0.01 0.01 0.01 0.01
0.02 0.02 0.02 0.01 0.02 0.01 0.01 0.01 0.01 0.00 0.00 0.00 0.00 0.00 0.00 0.00 0.00 0.00 0.00 0.00 0.00 0.00 0.00 0.00 0.01 0.00 0.00 0.01 0.02 0.00 0.00 0.00 0.00 0.00 0.00 0.00 0.01 0.00 0.00 0.01 0.01 0.01 0.00 0.00
0.00 0.01 0.00 0.00 0.01 0.01 0.01 0.01 0.00 0.00 0.00 0.00 0.00 0.00 0.00 0.00 0.00 0.00 0.00 0.00 0.00 0.00 0.00 0.00 0.01 0.00 0.00 0.01 0.01 0.00 0.00 0.00 0.00 0.00 0.00 0.00 0.00 0.00 0.01 0.01 0.01 0.01 0.01 0.01
0.00 0.00 0.00 0.00 0.00 0.01 0.00 0.00 0.00 0.00 0.00 0.00 0.00 0.00 0.00 0.00 0.00 0.00 0.00 0.00 0.00 0.00 0.01 0.01 0.00 0.00 0.01 0.01 0.00 0.00 0.00 0.00 0.00 0.00 0.00 0.00 0.01 0.00 0.01 0.01 0.01 0.01 0.01 0.01
0.00 0.00 0.00 0.00 0.00 0.00 0.00 0.00 0.00 0.00 0.00 0.00 0.00 0.00 0.00 0.00 0.00 0.00 0.00 0.00 0.00 0.00 0.01 0.00 0.00 0.00 0.08 0.02 0.00 0.00 0.00 0.00 0.00 0.00 0.00 0.01 0.01 0.00 0.00 0.00 0.01 0.01 0.01 0.01
0.00 0.00 0.00 0.00 0.00 0.00 0.00 0.00 0.00 0.00 0.00 0.00 0.00 0.00 0.00 0.00 0.00 0.00 0.00 0.00 0.00 0.00 0.02 0.00 0.00 0.02 0.14 0.01 0.00 0.00 0.00 0.00 0.00 0.00 0.00 0.01 0.01 0.01 0.01 0.01 0.01 0.01 0.01 0.01
0.00 0.00 0.00 0.00 0.00 0.00 0.00 0.00 0.00 0.00 0.00 0.00 0.00 0.00 0.00 0.00 0.00 0.00 0.00 0.00 0.00 0.00 0.03 0.01 0.01 0.02 0.08 0.01 0.00 0.00 0.00 0.00 0.00 0.01 0.01 0.01 0.01 0.01 0.01 0.01 0.01 0.01 0.01 0.01
0.00 0.00 0.00 0.00 0.00 0.00 0.00 0.00 0.00 0.00 0.00 0.00 0.00 0.00 0.00 0.00 0.00 0.00 0.00 0.00 0.00 0.01 0.01 0.01 0.01 0.02 0.03 0.00 0.00 0.00 0.00 0.00 0.00 0.01 0.01 0.01 0.01 0.01 0.01 0.01 0.01 0.01 0.01 0.01
0.00 0.00 0.00 0.00 0.00 0.00 0.00 0.00 0.00 0.00 0.00 0.00 0.00 0.00 0.00 0.00 0.00 0.00 0.00 0.00 0.00 0.01 0.00 0.00 0.01 0.01 0.00 0.00 0.00 0.00 0.00 0.00 0.01 0.02 0.01 0.01 0.01 0.01 0.01 0.01 0.01 0.02 0.02 0.02
0.00 0.00 0.00 0.00 0.00 0.00 0.00 0.00 0.00 0.00 0.00 0.01 0.00 0.00 0.00 0.00 0.00 0.00 0.00 0.00 0.00 0.01 0.00 0.00 0.00 0.00 0.00 0.00 0.00 0.00 0.00 0.00 0.00 0.00 0.01 0.01 0.01 0.01 0.01 0.01 0.01 0.02 0.02 0.02
0.00 0.01 0.02 0.01 0.00 0.00 0.00 0.02 0.05 0.01 0.00 0.00 0.01 0.01 0.01 0.00 0.00 0.00 0.00 0.00 0.00 0.00 0.00 0.00 0.00 0.00 0.00 0.00 0.00 0.00 0.00 0.00 0.00 0.00 0.01 0.01 0.01 0.01 0.01 0.02 0.02 0.03 0.03 0.03

GFSNGP_prec_precacc12_300.txt.gz
Total_Precipitation_Accumulation
0.02 0.02 0.03 0.03 0.02 0.00 0.00 0.00 0.01 0.01 0.00 0.01 0.01 0.02 0.02 0.03 0.03 0.04 0.09 0.11 0.14 0.18 0.19 0.20 0.20 0.21 0.33 0.40 0.39 0.29 0.30 0.22 0.16 0.13 0.12 0.12 0.14 0.15 0.18 0.14 0.14 0.38 0.47 0.52
0.04 0.01 0.02 0.03 0.01 0.01 0.02 0.01 0.01 0.00 0.01 0.01 0.00 0.01 0.02 0.02 0.03 0.04 0.06 0.10 0.14 0.15 0.17 0.19 0.23 0.24 0.27 0.37 0.44 0.48 0.35 0.38 0.29 0.20 0.17 0.14 0.15 0.15 0.19 0.21 0.19 0.16 0.35 0.51
0.05 0.03 0.04 0.06 0.01 0.00 0.00 0.00 0.00 0.01 0.01 0.00 0.01 0.02 0.04 0.03 0.04 0.06 0.07 0.09 0.13 0.17 0.21 0.24 0.27 0.33 0.33 0.38 0.44 0.48 0.53 0.41 0.45 0.34 0.25 0.24 0.15 0.18 0.18 0.25 0.25 0.22 0.16 0.32
0.08 0.07 0.09 0.02 0.00 0.00 0.00 0.01 0.00 0.00 0.00 0.01 0.02 0.05 0.05 0.04 0.05 0.05 0.06 0.07 0.08 0.13 0.16 0.19 0.23 0.25 0.29 0.32 0.39 0.44 0.52 0.52 0.44 0.51 0.38 0.30 0.32 0.19 0.24 0.22 0.30 0.27 0.18 0.14
0.08 0.05 0.04 0.01 0.01 0.01 0.01 0.02 0.00 0.00 0.00 0.00 0.00 0.03 0.06 0.01 0.03 0.07 0.10 0.11 0.13 0.16 0.18 0.20 0.23 0.23 0.26 0.27 0.31 0.35 0.39 0.51 0.53 0.54 0.65 0.44 0.41 0.43 0.28 0.34 0.34 0.33 0.33 0.24
0.09 0.07 0.07 0.03 0.02 0.01 0.01 0.02 0.02 0.00 0.01 0.00 0.00 0.01 0.02 0.02 0.03 0.03 0.04 0.07 0.11 0.10 0.10 0.11 0.16 0.20 0.23 0.26 0.27 0.31 0.40 0.50 0.59 0.58 0.65 0.79 0.60 0.65 0.55 0.36 0.46 0.47 0.36 0.47
0.07 0.15 0.09 0.03 0.01 0.02 0.03 0.02 0.01 0.01 0.01 0.01 0.02 0.04 0.02 0.01 0.02 0.04 0.06 0.07 0.08 0.07 0.11 0.14 0.14 0.16 0.19 0.20 0.26 0.36 0.40 0.42 0.47 0.52 0.57 0.76 0.91 0.74 0.90 0.69 0.41 0.50 0.57 0.47
0.04 0.08 0.07 0.02 0.02 0.03 0.03 0.04 0.02 0.01 0.00 0.00 0.01 0.00 0.00 0.00 0.01 0.01 0.02 0.02 0.03 0.05 0.06 0.09 0.10 0.11 0.14 0.19 0.25 0.27 0.32 0.37 0.39 0.47 0.51 0.54 0.73 0.86 0.86 1.01 0.79 0.55 0.57 0.58
0.03 0.04 0.04 0.04 0.04 0.05 0.03 0.02 0.01 0.01 0.00 0.00 0.00 0.00 0.00 0.00 0.00 0.00 0.01 0.01 0.02 0.04 0.05 0.05 0.07 0.11 0.12 0.17 0.18 0.20 0.21 0.30 0.35 0.39 0.42 0.45 0.49 0.67 0.74 0.84 0.97 0.88 0.69 0.70
0.03 0.04 0.05 0.05 0.03 0.02 0.02 0.02 0.01 0.00 0.00 0.00 0.00 0.00 0.00 0.00 0.00 0.00 0.00 0.00 0.00 0.01 0.02 0.03 0.04 0.06 0.10 0.10 0.13 0.16 0.18 0.23 0.27 0.32 0.34 0.36 0.37 0.45 0.55 0.64 0.74 0.88 0.82 0.76
0.03 0.03 0.03 0.03 0.02 0.01 0.00 0.00 0.00 0.00 0.00 0.00 0.00 0.00 0.00 0.00 0.00 0.00 0.00 0.00 0.00 0.00 0.00 0.01 0.02 0.02 0.02 0.02 0.04 0.08 0.13 0.17 0.20 0.23 0.29 0.32 0.36 0.47 0.53 0.65 0.71 0.74 0.82 0.77
0.03 0.03 0.04 0.03 0.01 0.01 0.00 0.00 0.00 0.01 0.00 0.00 0.00 0.00 0.00 0.00 0.00 0.01 0.00 0.00 0.00 0.00 0.00 0.00 0.00 0.00 0.00 0.00 0.01 0.02 0.04 0.11 0.13 0.17 0.21 0.24 0.28 0.26 0.32 0.46 0.45 0.51 0.57 0.59
0.03 0.03 0.02 0.02 0.01 0.00 0.00 0.00 0.02 0.01 0.00 0.00 0.00 0.00 0.00 0.00 0.00 0.01 0.00 0.00 0.00 0.00 0.00 0.00 0.00 0.00 0.00 0.00 0.01 0.00 0.02 0.08 0.01 0.06 0.13 0.15 0.18 0.21 0.22 0.20 0.21 0.26 0.36 0.40
0.02 0.01 0.02 0.01 0.01 0.00 0.00 0.00 0.01 0.00 0.00 0.00 0.00 0.00 0.00 0.00 0.00 0.00 0.00 0.00 0.00 0.00 0.00 0.00 0.00 0.00 0.00 0.00 0.00 0.00 0.00 0.03 0.00 0.00 0.04 0.06 0.10 0.13 0.16 0.17 0.16 0.14 0.21 0.24
0.01 0.01 0.02 0.01 0.01 0.00 0.00 0.00 0.00 0.00 0.00 0.00 0.00 0.00 0.00 0.00 0.00 0.00 0.00 0.00 0.00 0.00 0.00 0.00 0.00 0.00 0.00 0.00 0.00 0.00 0.00 0.03 0.01 0.00 0.01 0.00 0.01 0.04 0.06 0.08 0.10 0.10 0.08 0.09
0.01 0.01 0.01 0.01 0.01 0.00 0.00 0.00 0.00 0.00 0.00 0.00 0.00 0.00 0.00 0.00 0.00 0.00 0.00 0.00 0.00 0.00 0.00 0.00 0.00 0.01 0.00 0.00 0.00 0.00 0.00 0.01 0.01 0.00 0.00 0.00 0.00 0.00 0.01 0.02 0.03 0.05 0.08 0.16
0.01 0.01 0.01 0.01 0.00 0.00 0.00 0.01 0.01 0.01 0.00 0.00 0.00 0.00 0.00 0.00 0.00 0.00 0.00 0.00 0.00 0.00 0.00 0.00 0.00 0.01 0.00 0.01 0.01 0.00 0.00 0.00 0.00 0.00 0.00 0.01 0.00 0.01 0.01 0.01 0.01 0.01 0.03 0.07
0.01 0.01 0.01 0.01 0.01 0.01 0.00 0.00 0.01 0.00 0.00 0.00 0.00 0.00 0.00 0.00 0.00 0.00 0.00 0.00 0.00 0.00 0.00 0.00 0.02 0.01 0.00 0.02 0.02 0.00 0.00 0.00 0.00 0.00 0.01 0.01 0.01 0.00 0.01 0.01 0.01 0.01 0.01 0.01
0.00 0.00 0.00 0.00 0.00 0.00 0.00 0.00 0.00 0.00 0.00 0.00 0.00 0.00 0.00 0.00 0.00 0.00 0.00 0.00 0.00 0.00 0.00 0.00 0.01 0.00 0.00 0.01 0.01 0.00 0.00 0.00 0.00 0.00 0.01 0.00 0.00 0.00 0.01 0.01 0.01 0.01 0.01 0.01
0.00 0.00 0.00 0.00 0.00 0.00 0.00 0.00 0.00 0.00 0.00 0.00 0.00 0.00 0.00 0.00 0.00 0.00 0.00 0.00 0.00 0.00 0.00 0.00 0.00 0.00 0.00 0.01 0.00 0.00 0.00 0.00 0.00 0.00 0.01 0.00 0.01 0.00 0.01 0.01 0.01 0.01 0.01 0.01
0.00 0.00 0.00 0.00 0.00 0.00 0.00 0.00 0.00 0.00 0.00 0.00 0.00 0.00 0.00 0.00 0.00 0.00 0.00 0.00 0.00 0.00 0.01 0.00 0.00 0.00 0.05 0.03 0.00 0.00 0.00 0.00 0.00 0.00 0.00 0.01 0.01 0.00 0.00 0.00 0.01 0.01 0.01 0.01
0.00 0.00 0.00 0.00 0.00 0.00 0.00 0.00 0.00 0.00 0.00 0.00 0.00 0.00 0.00 0.00 0.00 0.00 0.00 0.00 0.00 0.00 0.01 0.01 0.00 0.02 0.16 0.03 0.00 0.00 0.00 0.00 0.00 0.00 0.00 0.01 0.01 0.01 0.01 0.01 0.01 0.01 0.01 0.01
0.00 0.00 0.00 0.00 0.00 0.00 0.00 0.00 0.00 0.00 0.00 0.00 0.00 0.00 0.00 0.00 0.00 0.00 0.00 0.00 0.00 0.00 0.03 0.02 0.01 0.03 0.13 0.01 0.00 0.00 0.00 0.00 0.00 0.00 0.01 0.01 0.01 0.01 0.01 0.01 0.02 0.01 0.01 0.02
0.00 0.00 0.00 0.00 0.00 0.00 0.00 0.00 0.00 0.00 0.00 0.00 0.00 0.00 0.00 0.00 0.00 0.00 0.00 0.00 0.00 0.01 0.03 0.03 0.02 0.04 0.14 0.01 0.00 0.00 0.00 0.00 0.00 0.00 0.01 0.01 0.01 0.01 0.01 0.01 0.01 0.01 0.01 0.02
0.00 0.00 0.00 0.00 0.00 0.00 0.00 0.00 0.00 0.00 0.00 0.00 0.00 0.00 0.00 0.00 0.00 0.00 0.00 0.00 0.01 0.01 0.01 0.01 0.02 0.02 0.01 0.00 0.00 0.00 0.00 0.00 0.00 0.01 0.00 0.01 0.01 0.01 0.01 0.01 0.01 0.02 0.02 0.02
0.00 0.00 0.01 0.01 0.02 0.01 0.01 0.00 0.00 0.01 0.01 0.01 0.00 0.00 0.00 0.00 0.00 0.00 0.00 0.00 0.01 0.01 0.01 0.00 0.00 0.00 0.00 0.00 0.00 0.00 0.00 0.00 0.00 0.00 0.00 0.01 0.01 0.00 0.01 0.01 0.02 0.02 0.03 0.03
0.00 0.01 0.02 0.02 0.00 0.00 0.00 0.01 0.05 0.02 0.00 0.00 0.01 0.01 0.02 0.01 0.01 0.01 0.00 0.00 0.00 0.00 0.00 0.00 0.00 0.00 0.00 0.00 0.01 0.00 0.00 0.00 0.00 0.00 0.00 0.00 0.00 0.00 0.01 0.01 0.02 0.03 0.03 0.04

GFSNGP_prec_precacc12_303.txt.gz
Total_Precipitation_Accumulation
0.01 0.02 0.03 0.03 0.02 0.00 0.00 0.00 0.00 0.00 0.00 0.00 0.00 0.00 0.01 0.01 0.00 0.01 0.02 0.03 0.04 0.07 0.09 0.10 0.11 0.11 0.18 0.22 0.25 0.23 0.28 0.22 0.15 0.12 0.09 0.06 0.07 0.12 0.17 0.13 0.13 0.36 0.45 0.52
0.04 0.01 0.02 0.03 0.01 0.01 0.02 0.01 0.01 0.00 0.01 0.01 0.00 0.00 0.01 0.01 0.00 0.01 0.02 0.04 0.05 0.07 0.09 0.12 0.15 0.16 0.15 0.22 0.25 0.31 0.29 0.36 0.28 0.20 0.17 0.12 0.12 0.12 0.18 0.20 0.18 0.15 0.32 0.49
0.06 0.02 0.06 0.11 0.02 0.00 0.00 0.00 0.00 0.00 0.00 0.00 0.00 0.01 0.03 0.02 0.01 0.02 0.03 0.05 0.07 0.09 0.13 0.16 0.19 0.25 0.24 0.26 0.30 0.32 0.35 0.34 0.43 0.35 0.26 0.25 0.16 0.18 0.16 0.24 0.24 0.21 0.15 0.31
0.10 0.08 0.12 0.02 0.00 0.00 0.00 0.01 0.00 0.00 0.00 0.00 0.00 0.02 0.03 0.03 0.02 0.02 0.03 0.04 0.05 0.09 0.12 0.14 0.18 0.20 0.22 0.23 0.28 0.32 0.36 0.36 0.37 0.50 0.40 0.33 0.34 0.21 0.25 0.22 0.29 0.26 0.17 0.14
0.10 0.07 0.05 0.01 0.01 0.01 0.01 0.02 0.01 0.01 0.00 0.00 0.00 0.01 0.04 0.00 0.01 0.04 0.06 0.07 0.08 0.12 0.14 0.16 0.19 0.21 0.22 0.20 0.23 0.27 0.29 0.37 0.38 0.46 0.61 0.47 0.46 0.45 0.29 0.37 0.33 0.31 0.33 0.24
0.13 0.08 0.07 0.03 0.02 0.01 0.01 0.03 0.02 0.00 0.01 0.00 0.00 0.00 0.01 0.00 0.01 0.01 0.02 0.05 0.08 0.07 0.07 0.09 0.13 0.18 0.21 0.22 0.21 0.25 0.33 0.41 0.47 0.48 0.56 0.71 0.58 0.66 0.56 0.36 0.46 0.45 0.36 0.46
0.07 0.15 0.09 0.03 0.01 0.02 0.03 0.02 0.02 0.01 0.01 0.01 0.01 0.02 0.01 0.00 0.01 0.02 0.03 0.04 0.06 0.05 0.09 0.11 0.11 0.15 0.18 0.19 0.22 0.31 0.35 0.37 0.41 0.45 0.51 0.66 0.81 0.66 0.88 0.64 0.37 0.47 0.54 0.44
0.04 0.08 0.07 0.02 0.02 0.03 0.03 0.04 0.02 0.01 0.01 0.00 0.00 0.00 0.00 0.00 0.00 0.00 0.01 0.01 0.02 0.03 0.04 0.06 0.08 0.11 0.14 0.17 0.23 0.24 0.28 0.33 0.35 0.42 0.46 0.49 0.65 0.74 0.78 0.98 0.69 0.44 0.57 0.53
0.03 0.03 0.04 0.04 0.04 0.05 0.03 0.02 0.01 0.01 0.00 0.00 0.00 0.00 0.00 0.00 0.00 0.00 0.00 0.00 0.01 0.02 0.03 0.03 0.05 0.09 0.11 0.15 0.18 0.19 0.20 0.26 0.31 0.36 0.40 0.42 0.47 0.62 0.66 0.80 0.92 0.79 0.59 0.67
0.03 0.04 0.05 0.05 0.02 0.02 0.02 0.02 0.01 0.00 0.00 0.00 0.00 0.00 0.00 0.00 0.00 0.00 0.00 0.00 0.00 0.00 0.00 0.01 0.02 0.04 0.07 0.08 0.13 0.16 0.18 0.22 0.25 0.30 0.32 0.34 0.35 0.45 0.56 0.65 0.75 0.88 0.80 0.73
0.02 0.02 0.03 0.03 0.02 0.01 0.00 0.00 0.00 0.00 0.00 0.00 0.00 0.00 0.00 0.00 0.00 0.00 0.00 0.00 0.00 0.00 0.00 0.00 0.00 0.01 0.00 0.01 0.04 0.09 0.13 0.16 0.19 0.22 0.28 0.32 0.36 0.49 0.58 0.72 0.84 0.88 0.96 0.84
0.02 0.03 0.04 0.03 0.01 0.01 0.01 0.00 0.00 0.01 0.00 0.00 0.00 0.00 0.01 0.00 0.00 0.01 0.00 0.00 0.00 0.00 0.00 0.00 0.00 0.00 0.00 0.00 0.01 0.02 0.04 0.11 0.14 0.19 0.22 0.25 0.29 0.27 0.34 0.51 0.54 0.66 0.74 0.79
0.03 0.03 0.02 0.02 0.01 0.01 0.00 0.00 0.01 0.01 0.00 0.00 0.00 0.00 0.01 0.01 0.00 0.01 0.00 0.00 0.00 0.00 0.00 0.00 0.00 0.00 0.00 0.00 0.00 0.00 0.02 0.09 0.02 0.07 0.16 0.18 0.20 0.24 0.26 0.24 0.24 0.32 0.51 0.57
0.02 0.01 0.02 0.01 0.01 0.01 0.00 0.00 0.01 0.00 0.00 0.00 0.00 0.00 0.01 0.00 0.00 0.00 0.00 0.00 0.00 0.00 0.00 0.00 0.00 0.00 0.00 0.00 0.00 0.00 0.00 0.03 0.00 0.01 0.05 0.09 0.15 0.18 0.21 0.23 0.22 0.20 0.32 0.39
0.00 0.01 0.02 0.01 0.01 0.00 0.00 0.00 0.00 0.00 0.00 0.00 0.00 0.00 0.00 0.00 0.00 0.00 0.00 0.00 0.00 0.00 0.00 0.00 0.00 0.00 0.00 0.00 0.00 0.00 0.00 0.04 0.01 0.00 0.01 0.01 0.02 0.07 0.11 0.13 0.16 0.16 0.13 0.15
0.00 0.00 0.00 0.00 0.00 0.00 0.00 0.00 0.00 0.00 0.00 0.00 0.00 0.00 0.00 0.00 0.00 0.00 0.00 0.00 0.00 0.00 0.00 0.00 0.00 0.01 0.00 0.00 0.00 0.00 0.00 0.01 0.01 0.00 0.00 0.00 0.00 0.00 0.02 0.04 0.06 0.09 0.12 0.24
0.01 0.01 0.01 0.00 0.00 0.00 0.00 0.00 0.01 0.01 0.00 0.00 0.00 0.00 0.00 0.00 0.00 0.00 0.00 0.00 0.00 0.00 0.00 0.00 0.00 0.01 0.00 0.01 0.01 0.00 0.00 0.00 0.00 0.00 0.01 0.01 0.00 0.01 0.01 0.01 0.02 0.03 0.06 0.14
0.01 0.01 0.01 0.00 0.00 0.01 0.00 0.00 0.00 0.00 0.00 0.00 0.00 0.00 0.00 0.00 0.00 0.00 0.00 0.00 0.00 0.00 0.00 0.00 0.02 0.02 0.00 0.02 0.03 0.00 0.00 0.00 0.00 0.00 0.01 0.01 0.01 0.00 0.01 0.01 0.01 0.01 0.01 0.01
0.00 0.00 0.00 0.00 0.00 0.00 0.00 0.00 0.00 0.00 0.00 0.00 0.00 0.00 0.00 0.00 0.00 0.00 0.00 0.00 0.00 0.00 0.00 0.00 0.01 0.00 0.00 0.01 0.01 0.00 0.00 0.00 0.00 0.00 0.01 0.00 0.00 0.00 0.01 0.01 0.01 0.01 0.01 0.01
0.00 0.00 0.00 0.00 0.00 0.00 0.00 0.00 0.00 0.00 0.00 0.00 0.00 0.00 0.00 0.00 0.00 0.00 0.00 0.00 0.00 0.00 0.00 0.00 0.00 0.00 0.00 0.01 0.00 0.00 0.00 0.00 0.00 0.00 0.01 0.00 0.01 0.00 0.01 0.01 0.01 0.01 0.01 0.01
0.00 0.00 0.00 0.00 0.00 0.00 0.00 0.00 0.00 0.00 0.00 0.00 0.00 0.00 0.00 0.00 0.00 0.00 0.00 0.00 0.00 0.00 0.00 0.01 0.00 0.00 0.03 0.04 0.00 0.00 0.00 0.00 0.00 0.00 0.00 0.00 0.01 0.00 0.00 0.00 0.01 0.01 0.01 0.01
0.00 0.00 0.00 0.00 0.00 0.00 0.00 0.00 0.00 0.00 0.00 0.00 0.00 0.00 0.00 0.00 0.00 0.00 0.00 0.00 0.00 0.00 0.00 0.02 0.00 0.01 0.18 0.03 0.00 0.00 0.00 0.00 0.00 0.00 0.00 0.01 0.01 0.01 0.01 0.01 0.01 0.01 0.01 0.01
0.00 0.00 0.00 0.00 0.00 0.00 0.00 0.00 0.00 0.00 0.00 0.00 0.00 0.00 0.00 0.00 0.00 0.00 0.00 0.00 0.00 0.00 0.03 0.02 0.01 0.03 0.15 0.01 0.00 0.00 0.00 0.00 0.00 0.00 0.00 0.01 0.01 0.01 0.01 0.01 0.01 0.01 0.01 0.02
0.01 0.01 0.00 0.00 0.00 0.00 0.00 0.00 0.00 0.00 0.00 0.00 0.00 0.00 0.00 0.00 0.00 0.00 0.00 0.00 0.00 0.01 0.04 0.03 0.02 0.05 0.17 0.02 0.00 0.00 0.00 0.00 0.00 0.00 0.00 0.00 0.00 0.01 0.01 0.01 0.01 0.01 0.02 0.02
0.00 0.00 0.00 0.00 0.01 0.01 0.00 0.00 0.00 0.00 0.00 0.00 0.00 0.00 0.00 0.00 0.01 0.00 0.00 0.00 0.00 0.01 0.01 0.02 0.02 0.02 0.01 0.00 0.00 0.00 0.00 0.00 0.00 0.01 0.00 0.00 0.00 0.00 0.00 0.01 0.01 0.02 0.03 0.03
0.00 0.00 0.01 0.01 0.02 0.01 0.01 0.00 0.00 0.01 0.01 0.01 0.00 0.00 0.00 0.00 0.00 0.00 0.00 0.00 0.01 0.01 0.01 0.00 0.00 0.00 0.00 0.00 0.00 0.00 0.00 0.00 0.00 0.00 0.00 0.00 0.00 0.00 0.00 0.01 0.01 0.02 0.03 0.03
0.00 0.00 0.01 0.02 0.00 0.00 0.00 0.01 0.05 0.02 0.00 0.00 0.01 0.01 0.01 0.02 0.01 0.01 0.01 0.01 0.00 0.00 0.00 0.00 0.00 0.00 0.00 0.00 0.01 0.00 0.00 0.00 0.00 0.00 0.00 0.00 0.00 0.00 0.00 0.00 0.01 0.01 0.02 0.03

GFSNGP_prec_precacc12_309.txt.gz
Total_Precipitation_Accumulation
0.00 0.00 0.00 0.00 0.00 0.00 0.01 0.00 0.02 0.00 0.00 0.00 0.00 0.00 0.00 0.00 0.00 0.00 0.00 0.00 0.00 0.00 0.00 0.00 0.00 0.00 0.01 0.01 0.01 0.03 0.03 0.02 0.02 0.01 0.01 0.01 0.01 0.00 0.00 0.00 0.02 0.24 0.31 0.38
0.08 0.01 0.00 0.01 0.00 0.01 0.02 0.02 0.02 0.01 0.00 0.00 0.00 0.00 0.00 0.00 0.00 0.00 0.00 0.00 0.00 0.00 0.00 0.00 0.01 0.02 0.02 0.02 0.02 0.04 0.06 0.05 0.04 0.04 0.03 0.03 0.02 0.01 0.01 0.01 0.00 0.02 0.21 0.36
0.14 0.01 0.06 0.14 0.03 0.00 0.01 0.01 0.02 0.03 0.01 0.01 0.01 0.00 0.00 0.01 0.00 0.00 0.00 0.00 0.00 0.00 0.01 0.02 0.03 0.05 0.06 0.06 0.05 0.06 0.07 0.08 0.09 0.09 0.08 0.07 0.05 0.04 0.02 0.01 0.02 0.02 0.03 0.21
0.15 0.09 0.16 0.04 0.00 0.00 0.02 0.03 0.02 0.02 0.01 0.01 0.00 0.00 0.00 0.01 0.01 0.00 0.00 0.00 0.00 0.01 0.01 0.01 0.02 0.04 0.04 0.05 0.07 0.09 0.09 0.09 0.10 0.15 0.13 0.14 0.14 0.09 0.06 0.03 0.02 0.03 0.07 0.07
0.15 0.10 0.06 0.02 0.01 0.02 0.02 0.02 0.01 0.01 0.01 0.00 0.00 0.00 0.00 0.00 0.00 0.00 0.01 0.01 0.01 0.02 0.03 0.03 0.04 0.05 0.06 0.05 0.06 0.08 0.09 0.10 0.12 0.18 0.24 0.22 0.27 0.23 0.13 0.13 0.05 0.02 0.05 0.09
0.11 0.07 0.04 0.02 0.02 0.02 0.03 0.03 0.02 0.00 0.01 0.00 0.00 0.00 0.00 0.00 0.00 0.00 0.00 0.00 0.01 0.02 0.02 0.02 0.02 0.05 0.06 0.07 0.08 0.09 0.13 0.16 0.19 0.24 0.31 0.37 0.34 0.45 0.35 0.21 0.16 0.08 0.10 0.14
0.07 0.14 0.07 0.03 0.02 0.03 0.04 0.02 0.03 0.02 0.01 0.01 0.01 0.01 0.00 0.00 0.00 0.00 0.00 0.00 0.01 0.01 0.02 0.03 0.03 0.05 0.06 0.07 0.09 0.13 0.16 0.17 0.20 0.23 0.31 0.39 0.47 0.42 0.60 0.43 0.23 0.18 0.14 0.14
0.05 0.08 0.05 0.02 0.03 0.04 0.04 0.04 0.03 0.01 0.01 0.01 0.01 0.00 0.00 0.00 0.00 0.00 0.00 0.00 0.00 0.00 0.01 0.01 0.03 0.04 0.05 0.07 0.09 0.11 0.14 0.16 0.19 0.23 0.28 0.33 0.41 0.42 0.50 0.66 0.49 0.26 0.27 0.18
0.03 0.04 0.05 0.05 0.05 0.06 0.04 0.02 0.02 0.01 0.01 0.01 0.00 0.00 0.00 0.00 0.00 0.00 0.00 0.00 0.00 0.00 0.00 0.01 0.02 0.03 0.05 0.06 0.09 0.10 0.11 0.14 0.16 0.18 0.25 0.30 0.34 0.41 0.40 0.54 0.66 0.56 0.42 0.43
0.03 0.03 0.04 0.03 0.02 0.02 0.02 0.02 0.01 0.01 0.01 0.00 0.01 0.00 0.00 0.00 0.00 0.00 0.00 0.00 0.00 0.00 0.00 0.00 0.00 0.01 0.02 0.04 0.07 0.10 0.11 0.13 0.14 0.18 0.20 0.20 0.25 0.31 0.39 0.48 0.62 0.68 0.62 0.57
0.01 0.01 0.02 0.02 0.01 0.01 0.00 0.00 0.00 0.00 0.00 0.00 0.00 0.00 0.00 0.00 0.00 0.00 0.00 0.00 0.00 0.00 0.00 0.00 0.00 0.00 0.00 0.00 0.02 0.06 0.08 0.09 0.11 0.15 0.18 0.20 0.24 0.43 0.57 0.63 0.87 0.93 0.98 0.81
0.01 0.02 0.03 0.01 0.01 0.01 0.01 0.00 0.00 0.01 0.00 0.00 0.00 0.01 0.01 0.00 0.00 0.00 0.01 0.00 0.00 0.00 0.00 0.00 0.00 0.00 0.00 0.00 0.01 0.02 0.02 0.06 0.10 0.13 0.14 0.17 0.19 0.17 0.23 0.42 0.49 0.64 0.77 0.86
0.03 0.02 0.02 0.02 0.01 0.01 0.01 0.00 0.01 0.02 0.00 0.00 0.00 0.00 0.01 0.01 0.00 0.01 0.00 0.00 0.00 0.00 0.00 0.00 0.00 0.00 0.00 0.00 0.00 0.00 0.01 0.06 0.02 0.04 0.10 0.15 0.17 0.20 0.22 0.18 0.18 0.26 0.47 0.60
0.02 0.01 0.01 0.00 0.01 0.01 0.01 0.00 0.00 0.00 0.00 0.00 0.00 0.00 0.00 0.01 0.00 0.00 0.00 0.00 0.00 0.00 0.00 0.00 0.00 0.00 0.00 0.00 0.00 0.00 0.00 0.02 0.01 0.00 0.04 0.08 0.15 0.21 0.24 0.26 0.25 0.22 0.33 0.46
0.00 0.01 0.02 0.01 0.01 0.00 0.00 0.00 0.00 0.00 0.00 0.00 0.00 0.00 0.00 0.00 0.00 0.00 0.00 0.00 0.00 0.00 0.00 0.00 0.00 0.00 0.00 0.00 0.00 0.00 0.00 0.02 0.01 0.00 0.01 0.01 0.03 0.09 0.15 0.18 0.22 0.23 0.17 0.22
0.00 0.00 0.00 0.00 0.00 0.00 0.00 0.00 0.00 0.00 0.00 0.00 0.00 0.00 0.00 0.00 0.00 0.00 0.00 0.00 0.00 0.00 0.00 0.00 0.00 0.00 0.00 0.00 0.00 0.00 0.00 0.00 0.01 0.00 0.00 0.00 0.00 0.01 0.04 0.09 0.13 0.17 0.20 0.37
0.01 0.01 0.01 0.01 0.00 0.00 0.00 0.00 0.00 0.00 0.00 0.00 0.00 0.00 0.00 0.00 0.00 0.00 0.00 0.00 0.00 0.00 0.00 0.00 0.00 0.01 0.00 0.00 0.00 0.00 0.00 0.00 0.00 0.00 0.00 0.01 0.00 0.01 0.01 0.03 0.07 0.11 0.18 0.31
0.01 0.01 0.00 0.00 0.00 0.01 0.00 0.00 0.00 0.00 0.00 0.00 0.00 0.00 0.00 0.00 0.00 0.00 0.00 0.00 0.00 0.00 0.00 0.00 0.01 0.03 0.01 0.02 0.03 0.00 0.00 0.00 0.00 0.00 0.00 0.01 0.01 0.00 0.01 0.01 0.02 0.05 0.07 0.09
0.00 0.00 0.00 0.00 0.00 0.00 0.00 0.00 0.00 0.00 0.00 0.00 0.00 0.00 0.00 0.00 0.00 0.00 0.00 0.00 0.00 0.00 0.00 0.00 0.01 0.01 0.00 0.01 0.04 0.01 0.00 0.00 0.00 0.00 0.00 0.00 0.00 0.00 0.01 0.01 0.01 0.01 0.03 0.04
0.00 0.00 0.00 0.00 0.00 0.00 0.00 0.00 0.00 0.00 0.00 0.00 0.00 0.00 0.00 0.00 0.00 0.00 0.00 0.00 0.00 0.00 0.00 0.00 0.01 0.00 0.00 0.01 0.02 0.00 0.00 0.00 0.00 0.00 0.00 0.00 0.00 0.00 0.00 0.01 0.01 0.01 0.01 0.02
0.00 0.00 0.00 0.00 0.00 0.00 0.00 0.00 0.00 0.00 0.00 0.00 0.00 0.00 0.00 0.00 0.00 0.00 0.00 0.00 0.00 0.00 0.00 0.00 0.00 0.00 0.02 0.02 0.00 0.00 0.00 0.00 0.00 0.00 0.00 0.00 0.00 0.00 0.00 0.00 0.01 0.01 0.01 0.02
0.00 0.00 0.00 0.00 0.00 0.00 0.00 0.00 0.00 0.00 0.00 0.00 0.00 0.00 0.00 0.00 0.00 0.00 0.00 0.00 0.00 0.00 0.00 0.01 0.00 0.01 0.17 0.05 0.00 0.00 0.00 0.00 0.00 0.00 0.00 0.00 0.00 0.00 0.00 0.00 0.01 0.02 0.02 0.03
0.00 0.00 0.00 0.00 0.01 0.01 0.00 0.00 0.00 0.00 0.00 0.00 0.00 0.00 0.00 0.00 0.00 0.01 0.00 0.00 0.00 0.00 0.04 0.05 0.02 0.04 0.19 0.04 0.01 0.00 0.00 0.00 0.00 0.00 0.00 0.00 0.01 0.01 0.01 0.01 0.02 0.02 0.02 0.03
0.00 0.00 0.00 0.00 0.00 0.01 0.00 0.00 0.00 0.00 0.00 0.00 0.00 0.00 0.00 0.00 0.00 0.00 0.00 0.00 0.01 0.02 0.05 0.05 0.03 0.05 0.20 0.08 0.00 0.00 0.00 0.00 0.00 0.00 0.00 0.01 0.00 0.00 0.00 0.00 0.01 0.01 0.03 0.04
0.00 0.00 0.00 0.00 0.01 0.00 0.00 0.00 0.00 0.00 0.00 0.00 0.00 0.00 0.00 0.00 0.01 0.00 0.00 0.00 0.00 0.02 0.02 0.02 0.02 0.03 0.03 0.00 0.00 0.00 0.00 0.00 0.00 0.02 0.00 0.01 0.01 0.00 0.00 0.00 0.00 0.01 0.02 0.03
0.01 0.01 0.01 0.00 0.01 0.01 0.01 0.00 0.01 0.00 0.00 0.01 0.00 0.00 0.00 0.00 0.00 0.00 0.00 0.00 0.02 0.02 0.03 0.01 0.00 0.00 0.00 0.00 0.00 0.00 0.00 0.00 0.00 0.00 0.00 0.00 0.00 0.00 0.00 0.00 0.00 0.01 0.02 0.02
0.00 0.01 0.02 0.02 0.00 0.01 0.01 0.02 0.04 0.02 0.00 0.01 0.02 0.00 0.01 0.02 0.01 0.01 0.01 0.02 0.00 0.00 0.00 0.00 0.00 0.00 0.00 0.00 0.00 0.00 0.00 0.00 0.00 0.00 0.01 0.00 0.00 0.00 0.00 0.00 0.00 0.00 0.01 0.01